CZ-6A DEB

Satellite information

Favourite Embed

Satellite Type and Status

DEBRISIN ORBIT

Key statistics

Satellite CZ-6A DEB at a glance.

Uptime

913

Days in orbit

Revolutions

≈ 14.6

Per day

Orbit

SSO

Sun Synchronous Orbit

Inclination

98.5

Latest

Satellite identification and parameters

Extended collection of information and parameters for CZ-6A DEB.

Object identification

Identified? True

Debris? True

Object name: CZ-6A DEB

International designator: 2022-151MD

Object number (NORAD): 54577

Object ID (CCSDS): 54577

Country: PEOPLES REPUBLIC OF CHINA (PRC)

Current information (Y/N): Y

RCS size: SMALL

Orbital parameters

Period: 98.653 minutes

Inclination: 98.4808 deg

SMA: 7072.391 km

Apoapsis: 748.021 km

Periapsis: 640.49 km

RAAN: 150.6112 deg

Eccentricy: 0.0076022

Argument of periapsis: 74.6854 deg

Mean anomaly: 286.2731 deg

Mean motion: 14.59665697 rev/day

Mean motion (dot): 0.000115 rev/day2

B* drag term: 0.0023256 1/REarth

Two-line elements (TLE)

Creation date: May 11, 2025, 10:21 p.m.

Reference frame: TEME

Reference center: EARTH

Epoch: May 11, 2025, 6:56 a.m. UTC

TLE line 0: 0 CZ-6A DEB

TLE line 1: 1 54577U 22151MD 25131.28890907 .00011500 00000-0 23256-2 0 9991

TLE line 2: 2 54577 98.4808 150.6112 0076022 74.6854 286.2731 14.59665697130825

Live tracking on map

Real-time ground track for satellite CZ-6A DEB.

In-orbit conjunctions

A list of the most updated potential collisions computed for object CZ-6A DEB.

Target Orbit TCA Probability of collision Miss distance Type
CZ-4B R/B SSO 2025-04-30 17:31:10 0.0003879586 175.0 (m) ROCKET BODY
THOR BURNER 2 R/B SSO 2024-09-13 23:04:25 0.0001881639 266.0 (m) ROCKET BODY

Associated space launch

Chinese satellite reported for atmospheric/ocean/environmental/spatial parameter research purposes, details TBD.

CZ-6A DEB was lifted into orbit during the mission ‘Long March 6A | Yunhai 3’, on board a Long March 6A space rocket.

The launch took place on Nov. 11, 2022, 10:52 p.m. from Launch Complex 9A.

For more information about the launch, click the button.

Launch to space Long March 6A | Yunhai 3
Long March 6A | Yunhai 3

Agency: N/A

Status: Launch Successful

Launch date: Nov. 11, 2022, 10:52 p.m. UTC

Rocket: Long March 6A

Launch pad: Launch Complex 9A

Location: Taiyuan Satellite Launch Center, People's Republic of China

...

Latest news about this satellite

There are no fresh news available about this satellite. Check back as we update our databases every day.


Newsletter sign-up

Weekly statistics, charts and insights to help you stay on top of the space industry.